sat.trackr.live / text

‹ back to catalog

STARLINK-31727

NORAD 59638 · 2024-082H

PAYLOAD ACTIVE UNKNOWN

§ Identity

Operator
Country
US
Launch date
2024-05-03
Launch site
AFETR
Launch vehicle
Mass (kg)
RCS (m²)

Purposes: comms

External: N2YO · Heavens-Above · Gunter

§ Orbital elements

Epoch: 2026-05-24T20:10:20.867520Z

Period
94.27 min
Inclination
43.0027°
Eccentricity
0.0001025
Mean motion
15.27586259 rev/d
Perigee alt
482.3 km
Apogee alt
483.7 km
Semi-major
6,861.2 km
B*
-3.1337e-5
RAAN
70.1394°
Arg perigee
273.3062°
Mean anomaly
86.7673°
Rev number
11,650

§ Raw data

STARLINK-317271 59638U 24082H   26144.84051930 -.00001124  00000+0 -31337-4 0  99942 59638  43.0027  70.1394 0001025 273.3062  86.7673 15.27586259116504

JSON: /api/v1/satellites/59638 · /tle

For live sub-satellite position, see the globe view (requires WebGL).

§ Visibility from observer

Set your observer location to see the next 7 days of passes ≥ 10°. The values pass through the URL so the page stays shareable.

No JS? Fill the form by hand. The geolocation button needs JavaScript.